Weather History for Preston, MN

Change the Weather History Date:

Friday, May 3, 2013

  Actual Average (KRST) Record (KRST)
Temperature  
Mean Temperature 34 °F 54 °F  
Max Temperature 36 °F 65 °F 91 °F (1949)
Min Temperature 32 °F 43 °F 21 °F (1967)
Degree Days  
Heating Degree Days 31 11  
Month to date heating degree days 35  
Since 1 July heating degree days 7460  
Cooling Degree Days 0 0  
Month to date cooling degree days 0  
Year to date cooling degree days 4  
Moisture  
Dew Point 29 °F    
Average Humidity 79    
Maximum Humidity 82    
Minimum Humidity 76    
Precipitation  
Precipitation 0.40 in 0.12 in 1.61 in (1888)
Month to date precipitation 0.35  
Year to date precipitation 7.16  
Snow  
Snow 0.00 in 0.00 in T in (2008)
Month to date snowfall 0.1  
Since 1 July snowfall 52.0  
Snow Depth -    
Sea Level Pressure  
Sea Level Pressure 30.14 in    
Wind  
Wind Speed 14 mph (NNE)    
Max Wind Speed 17 mph    
Max Gust Speed 25 mph    
Visibility 5 miles    
Events Rain , Snow    
T = Trace of Precipitation, MM = Missing Value Source: NWS Daily Summary

Daily Weather History Graph

Daily Weather History Graph

Search for Another Location

Airport:

Trip Planner

Search our weather history database for the weather conditions in past years. The results will help you decide how hot, cold, wet, or windy it might be!

Date:

Astronomy

May. 03, 2013 Rise Set
Actual Time 5:57 AM CDT 8:13 PM CDT
Civil Twilight 5:26 AM CDT 8:45 PM CDT
Nautical Twilight 4:46 AM CDT 9:25 PM CDT
Astronomical Twilight 4:03 AM CDT 10:09 PM CDT
Moon 2:34 AM CDT (5/3) 1:57 PM CDT (5/3)
Length of Visible Light 15h 19m
Length of Day
14h 16m
Last Quarter, 37% of the Moon is Illuminated
May 3
Last Quarter
May 9
New
May 17
First Quarter
May 24
Full
May 31
Last Quarter

Hourly Weather History & Observations

Time (CDT) Temp. Windchill Dew Point Humidity Pressure Visibility Wind Dir Wind Speed Gust Speed Precip Events Conditions
12:14 AM 33.8 °F 24.3 °F 27.9 °F 79% 30.32 in 4.0 mi North 13.8 mph 20.7 mph N/A Snow Light Snow
12:54 AM 33.8 °F 23.2 °F 27.9 °F 79% 30.31 in 3.0 mi North 17.3 mph - N/A Snow Light Snow
1:14 AM 33.4 °F 23.5 °F 27.9 °F 80% 30.30 in 3.0 mi North 15.0 mph 20.7 mph N/A Snow Light Snow
1:34 AM 33.4 °F 23.9 °F 27.9 °F 80% 30.30 in 4.0 mi North 13.8 mph 19.6 mph N/A Snow Light Snow
1:54 AM 33.3 °F 22.8 °F 27.5 °F 79% 30.28 in 2.5 mi North 16.1 mph 24.2 mph N/A Snow Light Snow
2:14 AM 33.1 °F 23.0 °F 27.5 °F 80% 30.28 in 2.5 mi North 15.0 mph 23.0 mph N/A Snow Light Snow
2:34 AM 33.1 °F 23.4 °F 27.5 °F 80% 30.28 in 2.0 mi North 13.8 mph 21.9 mph N/A Snow Light Snow
2:54 AM 33.1 °F 23.4 °F 27.5 °F 80% 30.28 in 2.0 mi North 13.8 mph 17.3 mph N/A Snow Light Snow
3:14 AM 32.9 °F 23.2 °F 27.5 °F 81% 30.27 in 3.0 mi North 13.8 mph - N/A Snow Light Snow
3:35 AM 32.9 °F 22.8 °F 27.5 °F 81% 30.25 in 2.5 mi North 15.0 mph 23.0 mph N/A Snow Light Snow
3:54 AM 32.9 °F 22.8 °F 27.5 °F 81% 30.23 in 3.0 mi North 15.0 mph 23.0 mph N/A Snow Light Snow
4:15 AM 32.7 °F 22.1 °F 27.3 °F 81% 30.22 in 2.5 mi North 16.1 mph 21.9 mph N/A Snow Light Snow
4:34 AM 32.7 °F 22.1 °F 27.3 °F 81% 30.21 in 3.0 mi North 16.1 mph 21.9 mph N/A Snow Light Snow
4:54 AM 32.5 °F 22.3 °F 27.1 °F 80% 30.21 in 4.0 mi North 15.0 mph 20.7 mph N/A Snow Light Snow
5:14 AM 32.5 °F 23.2 °F 27.1 °F 80% 30.21 in 7.0 mi North 12.7 mph 24.2 mph N/A Snow Light Snow
5:34 AM 32.5 °F 21.9 °F 27.0 °F 80% 30.20 in 4.0 mi North 16.1 mph 20.7 mph N/A Snow Light Snow
5:54 AM 32.5 °F 22.3 °F 27.0 °F 80% 30.20 in 5.0 mi North 15.0 mph 20.7 mph N/A   Overcast
6:14 AM 32.5 °F 23.2 °F 27.0 °F 80% 30.20 in 3.0 mi North 12.7 mph 18.4 mph 0.01 in Snow Light Snow
6:34 AM 32.4 °F 22.1 °F 27.1 °F 81% 30.20 in 2.5 mi North 15.0 mph 19.6 mph 0.01 in Snow Light Snow
6:55 AM 32.5 °F 22.3 °F 27.1 °F 80% 30.19 in 3.0 mi North 15.0 mph - 0.01 in Snow Light Snow
7:14 AM 32.5 °F 21.9 °F 27.1 °F 80% 30.19 in 7.0 mi North 16.1 mph 20.7 mph N/A   Overcast
7:35 AM 32.7 °F 23.9 °F 27.3 °F 81% 30.19 in 4.0 mi North 11.5 mph 18.4 mph N/A Snow Light Snow
7:54 AM 32.9 °F 24.1 °F 27.1 °F 79% 30.19 in 5.0 mi North 11.5 mph 19.6 mph N/A   Haze
8:14 AM 32.9 °F 24.1 °F 27.1 °F 79% 30.19 in 7.0 mi North 11.5 mph - N/A   Overcast
8:35 AM 33.3 °F 22.8 °F 27.5 °F 79% 30.18 in 5.0 mi North 16.1 mph 19.6 mph N/A   Overcast
8:54 AM 33.8 °F 26.4 °F 27.9 °F 79% 30.19 in 4.0 mi North 9.2 mph 19.6 mph N/A   Overcast
9:15 AM 33.8 °F 24.8 °F 28.0 °F 79% 30.19 in 2.5 mi North 12.7 mph - N/A   Overcast
9:55 AM 34.2 °F 26.2 °F 28.2 °F 79% 30.18 in 2.5 mi North 10.4 mph - 0.01 in   Overcast
10:14 AM 34.3 °F 25.5 °F 28.2 °F 78% 30.17 in 3.0 mi North 12.7 mph - N/A   Overcast
10:33 AM 34.3 °F 25.0 °F 28.4 °F 79% 30.15 in 4.0 mi North 13.8 mph 19.6 mph N/A   Overcast
10:54 AM 34.3 °F 24.6 °F 28.0 °F 78% 30.14 in 4.0 mi NNE 15.0 mph 25.3 mph N/A Rain Light Rain
11:15 AM 34.5 °F 25.7 °F 28.2 °F 78% 30.14 in 3.0 mi NNE 12.7 mph 24.2 mph 0.01 in   Overcast
11:34 AM 34.7 °F 24.7 °F 28.2 °F 77% 30.14 in 4.0 mi NNE 16.1 mph 23.0 mph 0.01 in   Overcast
11:55 AM 34.9 °F 26.2 °F 28.4 °F 77% 30.14 in 4.0 mi NNE 12.7 mph 19.6 mph 0.02 in   Overcast
12:35 PM 35.1 °F 24.8 °F 28.4 °F 77% 30.11 in 5.0 mi NNE 17.3 mph 24.2 mph 0.02 in Rain Light Rain
12:55 PM 35.2 °F 25.4 °F 28.4 °F 76% 30.10 in 5.0 mi NNE 16.1 mph 21.9 mph 0.03 in Rain Light Rain
1:15 PM 35.2 °F 26.2 °F 28.6 °F 77% 30.10 in 5.0 mi NNE 13.8 mph 19.6 mph N/A Rain Light Rain
1:34 PM 35.4 °F 26.8 °F 28.9 °F 77% 30.09 in 5.0 mi NNE 12.7 mph 18.4 mph 0.01 in Rain Light Rain
1:55 PM 35.6 °F 26.2 °F 28.6 °F 76% 30.09 in 5.0 mi NNE 15.0 mph 21.9 mph 0.02 in Rain Light Rain
2:15 PM 35.6 °F 25.5 °F 28.9 °F 77% 30.08 in 5.0 mi NNE 17.3 mph 25.3 mph N/A Rain Light Rain
2:35 PM 35.6 °F 25.5 °F 28.9 °F 77% 30.08 in 4.0 mi NNE 17.3 mph 24.2 mph 0.01 in Rain Light Rain
2:54 PM 35.6 °F 26.2 °F 29.1 °F 77% 30.07 in 5.0 mi NNE 15.0 mph 19.6 mph 0.02 in Rain Light Rain
3:15 PM 35.6 °F 27.5 °F 29.3 °F 78% 30.08 in 4.0 mi NNE 11.5 mph 20.7 mph 0.01 in Rain Light Rain
3:35 PM 35.6 °F 27.5 °F 29.1 °F 77% 30.09 in 4.0 mi NE 11.5 mph 17.3 mph 0.02 in Rain Light Rain
3:54 PM 35.6 °F 26.6 °F 29.3 °F 78% 30.07 in 3.0 mi NNE 13.8 mph 23.0 mph 0.04 in Rain Light Rain
4:15 PM 35.6 °F 26.2 °F 29.7 °F 79% 30.07 in 3.0 mi NNE 15.0 mph - 0.02 in Rain Rain
4:34 PM 35.6 °F 27.5 °F 29.8 °F 80% 30.07 in 3.0 mi NNE 11.5 mph 21.9 mph 0.04 in Rain Light Rain
4:54 PM 35.6 °F 27.5 °F 30.0 °F 80% 30.08 in 5.0 mi NNE 11.5 mph 16.1 mph 0.05 in Rain Light Rain
5:14 PM 35.8 °F 27.8 °F 30.2 °F 80% 30.07 in 5.0 mi NNE 11.5 mph 17.3 mph 0.01 in Rain Rain
5:35 PM 35.8 °F 27.3 °F 30.2 °F 80% 30.06 in 5.0 mi NNE 12.7 mph - 0.02 in Rain Light Rain
5:54 PM 36.0 °F 27.1 °F 30.2 °F 80% 30.06 in 10.0 mi NNE 13.8 mph 19.6 mph 0.02 in Rain Light Rain
6:14 PM 36.0 °F 28.0 °F 30.2 °F 80% 30.06 in 10.0 mi NNE 11.5 mph - N/A   Light Drizzle
6:34 PM 36.0 °F 28.0 °F 30.2 °F 80% 30.06 in 10.0 mi North 11.5 mph 17.3 mph N/A Rain Light Rain
6:54 PM 35.8 °F 26.9 °F 30.2 °F 80% 30.05 in 10.0 mi NNE 13.8 mph 19.6 mph N/A Rain Light Rain
7:15 PM 35.8 °F 26.9 °F 30.2 °F 80% 30.05 in 10.0 mi NNE 13.8 mph 19.6 mph N/A Rain Light Rain
7:34 PM 35.8 °F 27.3 °F 30.2 °F 80% 30.07 in 7.0 mi NNE 12.7 mph 17.3 mph 0.01 in   Overcast
7:54 PM 35.6 °F 26.6 °F 30.2 °F 81% 30.07 in 10.0 mi NNE 13.8 mph - 0.01 in Rain Light Rain
8:14 PM 35.6 °F 27.1 °F 30.2 °F 81% 30.06 in 10.0 mi NNE 12.7 mph - N/A   Light Drizzle
8:34 PM 35.6 °F 27.1 °F 30.2 °F 81% 30.06 in 10.0 mi NNE 12.7 mph - N/A   Overcast
8:54 PM 35.6 °F 26.6 °F 30.2 °F 81% 30.06 in 10.0 mi NNE 13.8 mph - N/A   Overcast
9:14 PM 35.6 °F 27.5 °F 30.2 °F 81% 30.06 in 7.0 mi NNE 11.5 mph - N/A Rain Light Rain
9:34 PM 35.6 °F 27.1 °F 30.2 °F 81% 30.06 in 7.0 mi NNE 12.7 mph - 0.01 in   Overcast
9:54 PM 35.6 °F 27.5 °F 30.2 °F 81% 30.05 in 10.0 mi North 11.5 mph 16.1 mph 0.01 in Rain Light Rain
10:14 PM 35.6 °F 27.5 °F 30.4 °F 81% 30.07 in 10.0 mi NNE 11.5 mph 17.3 mph N/A   Overcast
10:54 PM 35.6 °F 27.1 °F 30.4 °F 81% 30.06 in 7.0 mi NNE 12.7 mph 16.1 mph N/A Rain Light Rain
11:14 PM 35.6 °F 28.0 °F 30.4 °F 81% 30.05 in 7.0 mi North 10.4 mph - N/A Rain Light Rain
11:34 PM 35.6 °F 27.1 °F 30.6 °F 82% 30.04 in 4.0 mi NNE 12.7 mph 20.7 mph 0.02 in   Overcast
11:54 PM 35.6 °F 28.0 °F 30.6 °F 82% 30.04 in 1.2 mi North 10.4 mph - 0.16 in Snow Light Snow